{"data":{"norad_id":58239,"epoch":"2026-09-20T11:37:52.303296Z","epoch_age_seconds":144843,"freshness":"FRESH","line1":"1 58239U 23171K   26263.48463314  .00001886  00000+0  78012-4 0  9997","line2":"2 58239  43.0033 265.3228 0001913 275.7727  84.2907 15.27589141159526","mean_motion":15.27589141,"eccentricity":0.0001913,"inclination_deg":43.0033,"raan_deg":265.3228,"arg_perigee_deg":275.7727,"mean_anomaly_deg":84.2907,"bstar":7.8012e-5,"rev_number":15952,"period_min":94.266184627192,"perigee_km":481.70918506965,"apogee_km":484.33426439773,"semimajor_km":6861.1587247337,"source":"CELESTRAK","updated_at":"2026-09-21T09:00:33.837761Z"}}